TimeEST,TemperatureF,Dew PointF,Humidity,Sea Level PressureIn,VisibilityMPH,Wind Direction,Wind SpeedMPH,Gust SpeedMPH,PrecipitationIn,Events,Conditions,WindDirDegrees,DateUTC
12:51 AM,26.1,23.0,88,30.46,9.0,South,4.6,-,N/A,,Clear,180,2013-03-09 05:51:00
1:51 AM,26.1,23.0,88,30.44,8.0,Calm,Calm,-,N/A,,Clear,0,2013-03-09 06:51:00
2:51 AM,25.0,23.0,92,30.44,9.0,Calm,Calm,-,N/A,,Clear,0,2013-03-09 07:51:00
3:51 AM,23.0,21.9,96,30.42,8.0,Calm,Calm,-,N/A,,Clear,0,2013-03-09 08:51:00
4:51 AM,25.0,23.0,92,30.42,9.0,South,3.5,-,N/A,,Clear,170,2013-03-09 09:51:00
5:51 AM,24.1,21.9,91,30.43,9.0,Calm,Calm,-,N/A,,Clear,0,2013-03-09 10:51:00
6:51 AM,21.9,21.0,96,30.43,8.0,Calm,Calm,-,N/A,,Clear,0,2013-03-09 11:51:00
7:51 AM,27.0,25.0,92,30.43,8.0,Calm,Calm,-,N/A,,Mostly Cloudy,0,2013-03-09 12:51:00
8:51 AM,33.1,28.9,85,30.42,10.0,ESE,5.8,-,N/A,,Overcast,120,2013-03-09 13:51:00
9:51 AM,37.9,28.9,70,30.41,10.0,SSE,8.1,-,N/A,,Mostly Cloudy,150,2013-03-09 14:51:00
10:51 AM,39.9,28.9,65,30.39,10.0,SSE,11.5,-,N/A,,Mostly Cloudy,160,2013-03-09 15:51:00
11:51 AM,42.1,28.9,60,30.37,10.0,SE,5.8,-,N/A,,Mostly Cloudy,130,2013-03-09 16:51:00
12:51 PM,46.0,30.0,54,30.35,10.0,South,6.9,-,N/A,,Mostly Cloudy,170,2013-03-09 17:51:00
1:51 PM,48.2,30.2,50,30.28,10.0,SSE,10.4,-,N/A,,Mostly Cloudy,160,2013-03-09 18:51:00
2:51 PM,51.1,30.9,46,30.26,10.0,Variable,5.8,-,N/A,,Mostly Cloudy,0,2013-03-09 19:51:00
3:51 PM,46.0,32.0,58,30.25,10.0,NNE,8.1,-,N/A,,Mostly Cloudy,20,2013-03-09 20:51:00
4:51 PM,43.0,30.9,62,30.23,10.0,North,5.8,-,N/A,,Mostly Cloudy,10,2013-03-09 21:51:00
5:51 PM,42.1,30.9,65,30.21,10.0,North,5.8,-,N/A,,Mostly Cloudy,360,2013-03-09 22:51:00
6:51 PM,39.9,30.0,68,30.20,10.0,Calm,Calm,-,N/A,,Clear,0,2013-03-09 23:51:00
7:51 PM,42.1,32.0,67,30.19,10.0,SE,3.5,-,N/A,,Mostly Cloudy,140,2013-03-10 00:51:00
8:51 PM,45.0,30.0,56,30.17,10.0,SSE,5.8,-,N/A,,Mostly Cloudy,160,2013-03-10 01:51:00
9:51 PM,46.9,30.9,54,30.17,10.0,South,6.9,-,N/A,,Overcast,170,2013-03-10 02:51:00
10:51 PM,48.0,30.0,50,30.14,10.0,SSE,11.5,-,0.00,,Overcast,150,2013-03-10 03:51:00
11:51 PM,48.0,30.0,50,30.12,10.0,SSE,12.7,-,N/A,,Overcast,150,2013-03-10 04:51:00